Find Starlink 34905

NORAD ID: 65202 Int'l Des: 2025-176 Owner: SPXS Country: US Constellation: starlink operational
LEOCIRCULAR

实时位置

正在加载3D地球...

关于 Starlink 34905

正在加载描述...

即将过境

Passes for default location (London). Set your location on the main map for personalized predictions.

高度历史

Loading altitude history...

两行轨道根数

1 65202U 25176E 26106.99912830 .00009447 00000-0 33065-3 0 9996
2 65202 53.1590 334.9414 0001187 94.2998 265.8138 15.30202187 38986
Epoch: Apr 16, 2026 • Age: 13 hours

当前状态

高度 479.2 km
速度 7.63 km/s
星下点 45.31°N, 62.42°E
发射日期 Aug 14, 2025
运行时间 0.6 years
类型 internet

技术详情

分类 Payload
质量 575.00 kg
干质量 530.00 kg
总质量 575.00 kg
长度 0.30 m
直径 4.10 m
跨度 29.00 m
形状 Box + pan
制造商 SPXS
平台类型 Starlink V2MO
阶段状态 In Orbit
所有者/国家 SPXS/US

Most Searched